Terminal Aerodrome Forecast
Issued by NWS

Current Version | Previous Version | Graphics & Text | Print | Product List | Glossary On
Versions: 1 2 3 4 5 6 7 8 9 10 11 12 13 14 15 16 17 18 19
000
FTUS41 KILN 150525
TAFLCK
TAF
KLCK 150525Z 1506/1606 18008KT P6SM SCT250 WS020/21035KT
     FM150900 20010G18KT P6SM BKN080 WS020/23040KT
     FM151500 22018G32KT P6SM VCSH BKN040
     FM151700 25016G30KT P6SM VCSH OVC025
      TEMPO 1518/1520 5SM -SHRA
     FM152000 29014G22KT P6SM OVC025
     FM160000 32012KT P6SM BKN050=

USA.gov is the U.S. government's official web portal to all federal, state and local government web resources and services.